CW8217 Weather Reports


time (UTC)temp
C
wind
direction
speed
KPH
gust
KPH
rain 1hr
cm
rain 24hr
cm
rain mn
cm
humidity
%
barometer
mb
20260510220705 20 250 14.5 14.5 0.00 0.00 0.00 52 1017.5
20260510220205 20 249 11.3 14.5 0.00 0.00 0.00 54 1017.6
20260510215205 20 220 8.0 8.0 0.00 0.00 0.00 52 1017.5
20260510214706 20 220 8.0 8.0 0.00 0.00 0.00 51 1017.5
20260510214205 20 220 8.0 8.0 0.00 0.00 0.00 53 1017.6
20260510213704 20 220 8.0 8.0 0.00 0.00 0.00 53 1017.7
20260510212705 20 220 8.0 8.0 0.00 0.00 0.00 52 1017.8
20260510212205 21 220 8.0 8.0 0.00 0.00 0.00 52 1017.9
20260510211705 21 220 8.0 8.0 0.00 0.00 0.00 50 1017.8
20260510210205 22 220 9.7 12.9 0.00 0.00 0.00 47 1017.7
20260510205705 22 220 12.9 12.9 0.00 0.00 0.00 46 1017.6
20260510205205 22 220 12.9 12.9 0.00 0.00 0.00 44 1017.4
20260510204705 22 220 12.9 12.9 0.00 0.00 0.00 44 1017.5
20260510203704 23 220 12.9 12.9 0.00 0.00 0.00 43 1017.4
20260510203205 23 220 12.9 12.9 0.00 0.00 0.00 44 1017.5
20260510202705 23 220 12.9 12.9 0.00 0.00 0.00 47 1017.5
20260510202205 23 220 12.9 12.9 0.00 0.00 0.00 44 1017.5
20260510201705 22 220 12.9 12.9 0.00 0.00 0.00 42 1017.4
20260510201205 23 220 12.9 12.9 0.00 0.00 0.00 44 1017.5
20260510200205 22 222 16.1 32.2 0.00 0.00 0.00 42 1017.7
20260510195204 23 250 20.9 32.2 0.00 0.00 0.00 45 1017.7
20260510194705 23 250 20.9 32.2 0.00 0.00 0.00 43 1017.7
20260510194205 23 250 20.9 32.2 0.00 0.00 0.00 42 1017.7
20260510193704 23 250 20.9 32.2 0.00 0.00 0.00 42 1017.8
20260510193205 23 250 20.9 32.2 0.00 0.00 0.00 44 1017.8
20260510192705 22 250 20.9 32.2 0.00 0.00 0.00 43 1017.8
20260510192205 22 250 20.9 32.2 0.00 0.00 0.00 42 1017.8
20260510191705 22 250 20.9 32.2 0.00 0.00 0.00 42 1017.8
20260510185705 22 250 11.3 11.3 0.00 0.00 0.00 42 1017.8
20260510185206 22 250 11.3 11.3 0.00 0.00 0.00 43 1017.9
20260510184705 22 250 11.3 11.3 0.00 0.00 0.00 47 1017.9
20260510184205 21 250 11.3 11.3 0.00 0.00 0.00 45 1018.1
20260510183705 21 250 11.3 11.3 0.00 0.00 0.00 49 1018.1
20260510183206 21 250 11.3 11.3 0.00 0.00 0.00 46 1018.1
20260510182705 21 250 11.3 11.3 0.00 0.00 0.00 49 1018.3
20260510181705 21 250 11.3 11.3 0.00 0.00 0.00 51 1018.5
20260510180705 21 250 11.3 11.3 0.00 0.00 0.00 47 1018.3
20260510180205 21 252 14.5 19.3 0.00 0.00 0.00 50 1018.4
20260510175705 21 290 19.3 19.3 0.00 0.00 0.00 45 1018.3
20260510174705 21 290 19.3 19.3 0.00 0.00 0.00 46 1018.3
20260510173704 22 290 19.3 19.3 0.00 0.00 0.00 45 1018.2
20260510173205 21 290 19.3 19.3 0.00 0.00 0.00 47 1018.5
20260510172705 21 290 19.3 19.3 0.00 0.00 0.00 46 1018.5
20260510172205 21 290 19.3 19.3 0.00 0.00 0.00 45 1018.4
20260510171705 21 290 19.3 19.3 0.00 0.00 0.00 45 1018.5
20260510171205 21 290 19.3 19.3 0.00 0.00 0.00 45 1018.6
20260510170705 21 290 19.3 19.3 0.00 0.00 0.00 43 1018.5
20260510170205 21 288 16.1 19.3 0.00 0.00 0.00 46 1018.6
20260510165705 20 230 14.5 14.5 0.00 0.00 0.00 46 1018.8
20260510165205 20 230 14.5 14.5 0.00 0.00 0.00 43 1018.7
20260510164705 20 230 14.5 14.5 0.00 0.00 0.00 45 1018.8
20260510164205 20 230 14.5 14.5 0.00 0.00 0.00 46 1018.7
20260510163204 20 230 14.5 14.5 0.00 0.00 0.00 45 1018.7
20260510162205 20 230 14.5 14.5 0.00 0.00 0.00 45 1018.6
20260510161705 20 230 14.5 14.5 0.00 0.00 0.00 42 1018.7
20260510161204 20 230 14.5 14.5 0.00 0.00 0.00 44 1018.7
20260510160705 20 230 14.5 14.5 0.00 0.00 0.00 44 1018.8
20260510160204 20 231 16.1 19.3 0.00 0.00 0.00 44 1018.8
20260510155705 20 240 19.3 19.3 0.00 0.00 0.00 42 1018.6
20260510155205 20 240 19.3 19.3 0.00 0.00 0.00 43 1018.6
20260510154705 19 240 19.3 19.3 0.00 0.00 0.00 46 1018.6
20260510154205 19 240 19.3 19.3 0.00 0.00 0.00 45 1018.5
20260510153705 20 240 19.3 19.3 0.00 0.00 0.00 45 1018.5
20260510153205 19 240 19.3 19.3 0.00 0.00 0.00 48 1018.5
20260510152704 19 240 19.3 19.3 0.00 0.00 0.00 44 1018.3
20260510151705 19 240 19.3 19.3 0.00 0.00 0.00 47 1018.4
20260510151205 19 240 19.3 19.3 0.00 0.00 0.00 48 1018.4
20260510150705 19 240 19.3 19.3 0.00 0.00 0.00 51 1018.4
20260510145705 19 240 16.1 16.1 0.00 0.00 0.00 51 1018.4
20260510144705 18 240 16.1 16.1 0.00 0.00 0.00 50 1018.3
20260510144205 18 240 16.1 16.1 0.00 0.00 0.00 51 1018.4
20260510143705 18 240 16.1 16.1 0.00 0.00 0.00 52 1018.4
20260510142707 18 240 16.1 16.1 0.00 0.00 0.00 54 1018.4
20260510142207 18 240 16.1 16.1 0.00 0.00 0.00 52 1018.4
20260510141706 18 240 16.1 16.1 0.00 0.00 0.00 54 1018.4
20260510141208 17 240 16.1 16.1 0.00 0.00 0.00 52 1018.2
20260510140705 17 240 16.1 16.1 0.00 0.00 0.00 55 1018.3
20260510140205 17 241 16.1 16.1 0.00 0.00 0.00 56 1018.4
20260510135704 16 260 16.1 16.1 0.00 0.00 0.00 55 1018.1
20260510135205 16 260 16.1 16.1 0.00 0.00 0.00 59 1018.3
20260510134705 15 260 16.1 16.1 0.00 0.00 0.00 63 1018.3
20260510134205 15 260 16.1 16.1 0.00 0.00 0.00 65 1018.3
20260510133705 13 260 16.1 16.1 0.00 0.00 0.00 71 1018.2
20260510133205 12 260 16.1 16.1 0.00 0.00 0.00 77 1018.1
20260510132705 11 260 16.1 16.1 0.00 0.00 0.00 84 1018.2
20260510132209 10 260 16.1 16.1 0.00 0.00 0.00 87 1018.3
20260510131705 10 260 16.1 16.1 0.00 0.00 0.00 96 1018.3
20260510131204 9 260 16.1 16.1 0.00 0.00 0.00 96 1018.3
20260510130704 9 260 16.1 16.1 0.00 0.00 0.00 97 1018.2
20260510130204 9 260 12.9 16.1 0.00 0.00 0.00 97 1018.1
20260510125705 8 260 9.7 9.7 0.00 0.00 0.00 97 1018.0
20260510125205 8 260 9.7 9.7 0.00 0.00 0.00 96 1018.1
20260510124705 8 260 9.7 9.7 0.00 0.00 0.00 97 1017.9
20260510124205 7 260 9.7 9.7 0.00 0.00 0.00 96 1017.9
20260510123705 7 260 9.7 9.7 0.00 0.00 0.00 96 1018.0
20260510123204 7 260 9.7 9.7 0.00 0.00 0.00 96 1018.0
20260510122705 6 260 9.7 9.7 0.00 0.00 0.00 96 1018.1
20260510121205 6 260 9.7 9.7 0.00 0.00 0.00 96 1017.8
20260510120705 5 260 9.7 9.7 0.00 0.00 0.00 96 1017.8
20260510120205 5 260 9.7 9.7 0.00 0.00 0.00 96 1017.7
20260510115705 5 270 9.7 9.7 0.00 0.00 0.00 96 1017.6
20260510114205 5 270 9.7 9.7 0.00 0.00 0.00 96 1017.6
20260510113705 5 270 9.7 9.7 0.00 0.00 0.00 95 1017.7
20260510113205 5 270 9.7 9.7 0.00 0.00 0.00 95 1017.6
20260510112705 5 270 9.7 9.7 0.00 0.00 0.00 95 1017.4
20260510112205 5 270 9.7 9.7 0.00 0.00 0.00 96 1017.4
20260510111704 5 270 9.7 9.7 0.00 0.00 0.00 96 1017.4
20260510111205 4 270 9.7 9.7 0.00 0.00 0.00 95 1017.2
20260510110705 4 270 9.7 9.7 0.00 0.00 0.00 95 1017.2
20260510105205 4 230 4.8 4.8 0.00 0.00 0.00 94 1017.0
20260510104704 4 230 4.8 4.8 0.00 0.00 0.00 94 1017.0
20260510104205 4 230 4.8 4.8 0.00 0.00 0.00 94 1016.9
20260510103705 4 230 4.8 4.8 0.00 0.00 0.00 94 1016.8
20260510102705 5 230 4.8 4.8 0.00 0.00 0.00 94 1016.6
20260510102205 5 230 4.8 4.8 0.00 0.00 0.00 94 1016.6
20260510101705 5 230 4.8 4.8 0.00 0.00 0.00 94 1016.5
20260510101205 5 230 4.8 4.8 0.00 0.00 0.00 95 1016.4
20260510100705 5 230 4.8 4.8 0.00 0.00 0.00 95 1016.4
20260510100205 5 232 6.4 8.0 0.00 0.00 0.00 95 1016.4
20260510095705 5 270 8.0 8.0 0.00 0.00 0.00 95 1016.3
20260510095205 5 270 8.0 8.0 0.00 0.00 0.00 94 1016.3
20260510094705 5 270 8.0 8.0 0.00 0.00 0.00 94 1016.2
20260510094205 5 270 8.0 8.0 0.00 0.00 0.00 95 1016.1
20260510093205 5 270 8.0 8.0 0.00 0.00 0.00 94 1016.1
20260510092705 5 270 8.0 8.0 0.00 0.00 0.00 94 1016.1
20260510092205 5 270 8.0 8.0 0.00 0.00 0.00 94 1016.2
20260510091705 5 270 8.0 8.0 0.00 0.00 0.00 94 1016.2
20260510090705 5 270 8.0 8.0 0.00 0.00 0.00 95 1015.9
20260510090205 5 268 8.0 8.0 0.00 0.00 0.00 95 1015.8
20260510085705 5 220 8.0 8.0 0.00 0.00 0.00 95 1015.8
20260510085205 5 220 8.0 8.0 0.00 0.00 0.00 94 1015.7
20260510084205 5 220 8.0 8.0 0.00 0.00 0.00 94 1015.6
20260510083705 5 220 8.0 8.0 0.00 0.00 0.00 94 1015.5
20260510083204 5 220 8.0 8.0 0.00 0.00 0.00 95 1015.4
20260510082704 5 220 8.0 8.0 0.00 0.00 0.00 94 1015.3
20260510082205 5 220 8.0 8.0 0.00 0.00 0.00 94 1015.2
20260510081705 5 220 8.0 8.0 0.00 0.00 0.00 94 1015.2
20260510080704 5 220 8.0 8.0 0.00 0.00 0.00 94 1015.1
20260510080205 5 223 8.0 9.7 0.00 0.00 0.00 94 1015.0
20260510075204 5 290 9.7 9.7 0.00 0.00 0.00 93 1014.9
20260510074705 5 290 9.7 9.7 0.00 0.00 0.00 94 1014.8
20260510074205 6 290 9.7 9.7 0.00 0.00 0.00 94 1014.7
20260510073705 6 290 9.7 9.7 0.00 0.00 0.00 94 1014.7
20260510073205 6 290 9.7 9.7 0.00 0.00 0.00 94 1014.7
20260510072704 6 290 9.7 9.7 0.00 0.00 0.00 94 1014.7
20260510072206 6 290 9.7 9.7 0.00 0.00 0.00 93 1014.9
20260510071204 6 290 9.7 9.7 0.00 0.00 0.00 93 1015.0
20260510070705 6 290 9.7 9.7 0.00 0.00 0.00 93 1015.0
20260510070205 6 290 9.7 9.7 0.00 0.00 0.00 93 1014.9
20260510065705 6 290 9.7 9.7 0.00 0.00 0.00 94 1015.0
20260510065205 6 290 9.7 9.7 0.00 0.00 0.00 93 1015.0
20260510063705 6 290 9.7 9.7 0.00 0.00 0.00 93 1014.9
20260510063205 6 290 9.7 9.7 0.00 0.00 0.00 93 1015.1
20260510062705 6 290 9.7 9.7 0.00 0.00 0.00 93 1015.2
20260510061705 6 290 9.7 9.7 0.00 0.00 0.00 93 1015.1
20260510055205 6 290 9.7 9.7 0.00 0.00 0.00 93 1015.3
20260510054704 6 290 9.7 9.7 0.00 0.00 0.00 93 1015.2
20260510054204 6 290 9.7 9.7 0.00 0.00 0.00 93 1015.2
20260510052705 7 290 9.7 9.7 0.00 0.00 0.00 92 1015.3
20260510052204 7 290 9.7 9.7 0.00 0.00 0.00 92 1015.3
20260510051704 7 290 9.7 9.7 0.00 0.00 0.00 92 1015.2
20260510051205 7 290 9.7 9.7 0.00 0.00 0.00 92 1015.1
20260510050205 7 290 9.7 9.7 0.00 0.00 0.00 92 1015.1
20260510045704 7 290 9.7 9.7 0.00 0.00 0.00 92 1015.2
20260510045205 7 290 9.7 9.7 0.00 0.00 0.00 92 1015.2
20260510044205 7 290 9.7 9.7 0.00 0.00 0.00 92 1014.9
20260510043205 7 290 9.7 9.7 0.00 0.00 0.00 91 1014.9
20260510042705 7 290 9.7 9.7 0.00 0.00 0.00 91 1015.0
20260510042205 7 290 9.7 9.7 0.00 0.00 0.00 91 1015.0
20260510041704 7 290 9.7 9.7 0.00 0.00 0.00 91 1015.0
20260510041205 7 290 9.7 9.7 0.00 0.00 0.00 91 1015.0
20260510040707 7 290 9.7 9.7 0.00 0.00 0.00 91 1015.0
20260510040204 8 290 9.7 9.7 0.00 0.00 0.00 91 1015.0
20260510034705 8 290 9.7 9.7 0.00 0.00 0.00 90 1015.0
20260510033705 8 290 9.7 9.7 0.00 0.00 0.00 89 1015.1
20260510033204 8 290 9.7 9.7 0.00 0.00 0.00 90 1015.1
20260510032707 8 290 9.7 9.7 0.00 0.00 0.00 89 1015.0
20260510032205 8 290 9.7 9.7 0.00 0.00 0.00 89 1015.1
20260510031705 8 290 9.7 9.7 0.00 0.00 0.00 89 1015.1
20260510031205 8 290 9.7 9.7 0.00 0.00 0.00 89 1015.0
20260510030705 8 290 9.7 9.7 0.00 0.00 0.00 88 1015.0
20260510030205 8 290 9.7 9.7 0.00 0.00 0.00 88 1015.0
20260510025705 8 290 9.7 9.7 0.00 0.00 0.00 88 1015.0
20260510025205 9 290 9.7 9.7 0.00 0.00 0.00 88 1014.9
20260510024705 9 290 9.7 9.7 0.00 0.00 0.00 87 1014.8
20260510024205 9 290 9.7 9.7 0.00 0.00 0.00 87 1014.8
20260510023705 9 290 9.7 9.7 0.00 0.00 0.00 87 1014.7
20260510023205 9 290 9.7 9.7 0.00 0.00 0.00 86 1014.7
20260510022705 10 290 9.7 9.7 0.00 0.00 0.00 86 1014.7
20260510022205 10 290 9.7 9.7 0.00 0.00 0.00 86 1014.7
20260510021205 10 290 9.7 9.7 0.00 0.00 0.00 85 1014.5
20260510020705 10 290 9.7 9.7 0.00 0.00 0.00 85 1014.5
20260510020205 10 290 9.7 9.7 0.00 0.00 0.00 84 1014.5
20260510015705 10 290 9.7 9.7 0.00 0.00 0.00 84 1014.3
20260510015205 10 290 9.7 9.7 0.00 0.00 0.00 84 1014.3
20260510014705 10 290 9.7 9.7 0.00 0.00 0.00 83 1014.2
20260510013705 11 290 9.7 9.7 0.00 0.00 0.00 82 1014.0
20260510012705 11 290 9.7 9.7 0.00 0.00 0.00 81 1013.8
20260510012204 11 290 9.7 9.7 0.00 0.00 0.00 81 1013.8
20260510011705 11 290 9.7 9.7 0.00 0.00 0.00 80 1013.6
20260510011205 11 290 9.7 9.7 0.00 0.00 0.00 80 1013.4
20260510010704 12 290 9.7 9.7 0.00 0.00 0.00 79 1013.3
20260510005205 12 290 9.7 9.7 0.00 0.00 0.00 77 1013.1
20260510004704 12 290 9.7 9.7 0.00 0.00 0.00 76 1013.0
20260510004205 13 290 9.7 9.7 0.00 0.00 0.00 75 1012.9
20260510003205 13 290 9.7 9.7 0.00 0.00 0.00 74 1012.5
20260510002705 13 290 9.7 9.7 0.00 0.00 0.00 73 1012.7
20260510002204 13 290 9.7 9.7 0.00 0.00 0.00 72 1012.6
20260510001705 14 290 9.7 9.7 0.00 0.00 0.00 71 1012.6
20260510001205 14 290 9.7 9.7 0.00 0.00 0.00 70 1012.6
20260510000204 15 290 9.7 11.3 0.00 0.00 0.00 69 1012.5
20260509235705 15 290 11.3 11.3 0.00 0.00 0.00 69 1012.5
20260509235205 15 290 11.3 11.3 0.00 0.00 0.00 69 1012.6
20260509234704 15 290 11.3 11.3 0.00 0.00 0.00 67 1012.5
20260509234205 15 290 11.3 11.3 0.00 0.00 0.00 67 1012.5
20260509233705 15 290 11.3 11.3 0.00 0.00 0.00 65 1012.5
20260509233205 16 290 11.3 11.3 0.00 0.00 0.00 65 1012.6
20260509232705 16 290 11.3 11.3 0.00 0.00 0.00 64 1012.7
20260509232205 16 290 11.3 11.3 0.00 0.00 0.00 64 1012.8
20260509231205 16 290 11.3 11.3 0.00 0.00 0.00 64 1012.6
20260509230705 16 290 11.3 11.3 0.00 0.00 0.00 62 1012.6
20260509230205 16 288 11.3 12.9 0.00 0.00 0.00 59 1012.5
20260509224705 17 260 12.9 12.9 0.00 0.00 0.00 57 1012.2
20260509224205 17 260 12.9 12.9 0.00 0.00 0.00 60 1012.2
20260509223705 17 260 12.9 12.9 0.00 0.00 0.00 59 1012.3
20260509223205 17 260 12.9 12.9 0.00 0.00 0.00 58 1012.3
20260509222704 17 260 12.9 12.9 0.00 0.00 0.00 56 1012.2
20260509221705 17 260 12.9 12.9 0.00 0.00 0.00 56 1012.3
20260509221205 17 260 12.9 12.9 0.00 0.00 0.00 57 1012.1